sat.trackr.live / text

‹ back to catalog

STARLINK-11685 [DTC]

NORAD 63552 · 2025-075E

PAYLOAD ACTIVE UNKNOWN

§ Identity

Operator
Country
US
Launch date
2025-04-13
Launch site
AFETR
Launch vehicle
Mass (kg)
RCS (m²)

Purposes: comms

External: N2YO · Heavens-Above · Gunter

§ Orbital elements

Epoch: 2026-05-24T17:55:38.904384Z

Period
91.66 min
Inclination
43.0009°
Eccentricity
0.0003609
Mean motion
15.70952013 rev/d
Perigee alt
353.7 km
Apogee alt
358.6 km
Semi-major
6,734.3 km
B*
1.3362e-3
RAAN
55.0689°
Arg perigee
281.3604°
Mean anomaly
78.6858°
Rev number
6,521

§ Raw data

STARLINK-11685 [DTC]1 63552U 25075E   26144.74697806  .00175529  00000+0  13362-2 0  99992 63552  43.0009  55.0689 0003609 281.3604  78.6858 15.70952013 65213

JSON: /api/v1/satellites/63552 · /tle

For live sub-satellite position, see the globe view (requires WebGL).

§ Visibility from observer

Set your observer location to see the next 7 days of passes ≥ 10°. The values pass through the URL so the page stays shareable.

No JS? Fill the form by hand. The geolocation button needs JavaScript.